"Pseudo-MPEC" for Sar2752

Created 2024 May 16 13:22:13 UT using Find_Orb

Click here for an explanation of pseudo-MPECs

 
 Astrometry: 
     Sar2752* C2024 05 15C4:uXTTBgQcbnA3n\2slm66vL,+=QVCOj7J#kXy2ccOX^@NyfAjqK88
     Sar2752  C2024 05 15p.4:21iWHmZmY%iv.!ZK(y[@u%Blv+odE'uh^C[jAstrometry;RK88
     Sar2752  C2024 05 15I+NX`/)Bc($*#]p31?w0Frx+;4#_O//4^gOGJq0ROn0gOZ`SxqyJK88
     Sar2752 KC2024 05 15I^@]b%gK4U/U*0%u2+iBrVsY/K*bu-G;EcA24Ugxer.jN)YMxRETK88
     Sar2752 KC2024 05 15%$=Pb%p'A;jbMXqnV\@e'nn)(A(4g\9ETC.4HX;Cs_+=WHtmi9t]K88
     Sar2752 KC2024 05 15-$?)`SJvlIPi18iY[Ap6Rredacted;?0ybINE0,?mlr=h?As.R7BK88
     Sar2752 KB2024 05 15q68i1/Y=(CjljiWP.JB'BeFc^T;O/7EPD09#MAGi1m4TJdcOajKjM45
     Sar2752 KB2024 05 15hx]m-On,Y8roim3clickX0G24eu=?B`/0$.nr;C@2N'bAxuybvevM45
     Sar2752 KC2024 05 15.93298314 51 46.462+13 50 43.87   ~5FNq 18.7 GVNEOCPZ80
     Sar2752 KC2024 05 15.94457514 51 59.626+14 03 13.39   ~5FNq 19.1 GVNEOCPZ80
     Sar2752 KC2024 05 15;anB6\6Gaxo3ml-oH?4PPKxKJ`Gi7P+81uu!v\ykol79u*iOZ:(+G01
     Sar2752 KC2024 05 15B,.YH8aI:6$jr#\AJMwfgLp0!P%)5CLu+_wD$8GrNbF)xA-rMGDCK88
     Sar2752 KC2024 05 15WFMhere\)ZU7?;i=s'eEVkaVN:R6@Jcgoax;h5D+ITvhIe,BGKA#K88
     Sar2752 KC2024 05 15p(3DBe46x)+_\MKx2t,cbU(HwOsr,C!tBw_V:OTw4m3hu^gaXsJuG01
     Sar2752 KC2024 05 15)Sw\qyinTc6QmE,!C@oV/j;PforQM#V,/gEK@4?NQV%.I%:JZsXCK88
     Sar2752 KC2024 05 15=MMIUQ%W7hWX3(xHL-X,;'1U+3jYEgvM;E(FJ9]lqZSn\UAC3'_nG01
     Sar2752 KC2024 05 15ln%8Y$/QuU3AY'XLRN`+CBa?tyXikMCJ?VNyeZNtGoTN(Z0@f-'KG01
     Sar2752 KB2024 05 15[!$:DoAAs:QHnq\Bk)ly2tYl*SX8I_=_;BS9kN5ehfg\]IY),K(r958
     Sar2752 KC2024 05 15.97092614 52 29.782+14 31 35.29   ~5FNb 18.7 GVNEOCPJ95
     Sar2752 KC2024 05 15.97225114 52 31.306+14 33 00.65   ~5FNb 18.8 GVNEOCPJ95
     Sar2752 KB2024 05 15Ee)owA?79X,51y_4E'U285wuvH$nG@3Pi1Lbe@.Q-ZjBrQl6C\g?958
     Sar2752 KC2024 05 15.97344114 52 32.638+14 34 17.51   ~5FNb 18.4 GVNEOCPJ95
     Sar2752 KC2024 05 15.97466514 52 34.015+14 35 36.67   ~5FNb 18.6 GVNEOCPJ95
     Sar2752 KB2024 05 15X5CL\=`f,K8oM#5[WAB81r]odM9:XX)U_?ry,$JDswc2Y*.qoMiS958
     Sar2752 KC2024 05 15B.Z[.OmAXHx@%^E)(rZ^[le55'YhJA_)QSJ0U*bvcFul(mg)r+nMK88
     Sar2752 KC2024 05 15t]T-%XN(XYK\CZA+0^+++hS1/\^n*1hh?PmxXOp6/uM,UHlf,QK7K88
     Sar2752 KC2024 05 15?$IN:-Byreg7o4iMd9Mhk3D9%dyWi7vH:%b!!;sf\d[q./5GM6rOK88
     Sar2752 KC2024 05 16.07136514 54 25.238+16 19 11.46   ~5G27 18.6 GVNEOCPJ95
     Sar2752 KC2024 05 16.07266114 54 26.714+16 20 34.48   ~5G27 18.8 GVNEOCPJ95
     Sar2752 KC2024 05 16.07394414 54 28.219+16 21 56.88   ~5G27 19.0 GVNEOCPJ95
     Sar2752 KC2024 05 16.07526214 54 29.815+16 23 21.26   ~5G27 18.8 GVNEOCPJ95
     Sar2752 KC2024 05 164e/RfuUCIA`JC!Cc^by/pexplanationbx=in-;wu,'xr#TiW0`(H21
     Sar2752 KC2024 05 16-KKTg$=]f;U//J,8*ms(eP6.Qn?kva!+;i/XLOM[^6x.wjljcu/:H21
     Sar2752 KC2024 05 161EY76Uqx1#m2SbD`cAPU1m*t-p8,OOw_!Op$BpjP,V8-TxJu(Y`vH21
     Sar2752 KC2024 05 16dZ]4MjcVgWr[8B;s2K1s%dCTlW:hANUUpr27OC-GYyj_n=q?(kxlH21
     Sar2752 KB2024 05 16hR_EF'@uaOPWHQ`/R?/v$W9OwBtuhc('bN/]Ip2T(hp*?0nrOWn-Q06
     Sar2752 KB2024 05 164b]1*WaLtiT7qctu3`OoOyTHdH@9%i!9+^%io@;jco'Z2UU;^oj8Q06
     Sar2752 KB2024 05 16#9K3o*Vpxa.W*XwF:;]t(8*(SBQxZU76Z$,e5V=Pet[wK[yev\9XQ06

Station data:
(958) Observatoire de Dax  (N43.693381 W1.030530)  France.  Observer P.
   Dupouy. 0.32-m Schmidt-Cassegrain.
(G01) Universitaetssternwarte Oldenburg  (N53.152844 E8.165280)  Germany.
   Observer T. Hoffmann. 0.4-m f/8 Ritchey-Chrétien + CCD.
(H21) Astronomical Research Observatory, Westfield  (N39.483054 W87.968270)
   US/Illinois.  Observer R. Holmes. Measurers S. Foglia, L. Buzzi, T.
   Linder, R. Holmes. 0.76-m f/3.0 astrograph + CCD0.81-m f/4.0 astrograph +
   CCD0.61-m f/4.5 astrograph + CCD0.40-m f/5.32 astrograph + CCD.
(J95) Great Shefford  (N51.474969 W1.447003)  UK/England.  Observer P.
   Birtwhistle. 0.41-m f/6.3 Schmidt-Cassegrain + CCD.
(K88) GINOP-KHK, Piszkéstető  (N47.917453 E19.893670)  Hungary.  Observer K.
   Sárneczky. 0.60-m Schmidt + CCD.
(M45) Starhopper Observatory, Sfantu Gheorghe  (N45.865582 E25.768900)
   Romania.  Observer F. Ursache. 0.41-m f/7.5 reflector + CMO.
(Q06) Tarui Observatory, Tarui  (N35.394791 E136.495470)  Japan.
(Z80) Northolt Branch Observatory  (N51.554659 W0.371920)  UK/England.
   Observer G. Wells. Measurer D. Bamberger. 0.25-m f/8 Ritchey-Chrétien +
   CCD.

Orbital elements:  Sar2752
   Perihelion 2024 Jun 23.91418 +/- 0.0145 TT = 21:56:24 (JD 2460485.41418)
Epoch 2024 May 16.0 TT = JDT 2460446.5   Earth MOID: 0.0189   Ma: 0.0106
M 334.34949002 +/- 0.024            (J2000 ecliptic)             AutoNEOCP
n   0.65915593 +/- 0.000405         Peri.   45.11801 +/- 0.011
a   1.30760710 +/- 0.000535         Node   233.25741 +/- 0.00040
e   0.2583530 +/- 0.000322          Incl.   18.00872 +/- 0.012
P   1.50/546.14d           H 26.04  G  0.15   U  7.5
q 0.96978284 +/- 3.44e-5    Q 1.64543135 +/- 0.00109
37 of 38 observations 2024 May 15-16 (15.5 hr); mean residual 0".50
Residuals in arcseconds: 
240515 K88  .08-  .22-    240515 G01  .39+  1.2+    240515 K88  .18-  .52+    
240515 K88  .30-  .02-    240515 K88  .36+  .45+    240516 J95  .32+  .30-    
240515 K88  1.1+  .21-    240515 G01  .02+  1.2-    240516 J95  .30-  .19-    
240515 K88  .16-  .68+    240515 G01  .50-  .65+    240516 J95  .29-  .14+    
240515 K88  .36-  1.1+    240515 958  1.1-  .70+    240516 J95  .42+  .23+    
240515 K88  .37+  .03+    240515 J95  .12-  .12-    240516 H21  .06-  .73+    
240515 M45  .87+  .46+    240515 J95  .18+  .29-    240516 H21  .15-  .66+    
240515 M45  .35+  .04-    240515 958  .29-  .92-    240516 H21  .10-  .71+    
240515 Z80  .06+  1.1+    240515 J95  .08-  .24-    240516 H21  .10+  .67+    
240515 Z80  .71+  .82+    240515 J95  .25-  .07-    240516 Q06  .34-  .36-    
240515 G01( 1.7+  4.1+)   240515 958  .15+  .12-    240516 Q06  .41+  .51-    
240515 K88  .05-  .10-    240515 K88  .33+  .67+    240516 Q06  .18+  .41+    
240515 K88  .31-  .15+    240515 K88  .34-  .01+    

Ephemerides (geocentric):
Date (UTC) HH   RA             Dec           delta  r     elong  mag " sig PA
---- --------  ------------   ------------  ------ ------ -----  --- --------
2024 05 16 13  15 04 53.596   +24 36 12.36  .02025 1.0257 135.6 19.3 .070 107
2024 05 16 14  15 05 50.220   +25 18 28.87  .02031 1.0256 134.9 19.3 .084  77
2024 05 16 15  15 06 47.160   +26 00 28.49  .02038 1.0255 134.3 19.4 .115  58
2024 05 16 16  15 07 44.416   +26 42 10.53  .02044 1.0254 133.6 19.4 .156  47
2024 05 16 17  15 08 41.990   +27 23 34.29  .02051 1.0253 132.9 19.4 .202  41
2024 05 16 18  15 09 39.882   +28 04 39.14  .02059 1.0252 132.3 19.4 .253  37
2024 05 16 19  15 10 38.092   +28 45 24.46  .02066 1.0251 131.6 19.5 .308  34
2024 05 16 20  15 11 36.620   +29 25 49.67  .02074 1.0250 131.0 19.5 .365  32
2024 05 16 21  15 12 35.467   +30 05 54.23  .02082 1.0248 130.3 19.5 .425  30
2024 05 16 22  15 13 34.633   +30 45 37.61  .02091 1.0247 129.7 19.5 .488  29
2024 05 16 23  15 14 34.119   +31 24 59.34  .02100 1.0246 129.0 19.6 .554  28
2024 05 17 00  15 15 33.924   +32 03 58.96  .02109 1.0245 128.4 19.6 .621  27
2024 05 17 01  15 16 34.050   +32 42 36.06  .02119 1.0244 127.8 19.6 .690  27
2024 05 17 02  15 17 34.495   +33 20 50.23  .02128 1.0243 127.1 19.6 .762  26
2024 05 17 03  15 18 35.260   +33 58 41.14  .02138 1.0242 126.5 19.7 .835  26
2024 05 17 04  15 19 36.346   +34 36 08.46  .02149 1.0240 125.9 19.7 .910  26
2024 05 17 05  15 20 37.752   +35 13 11.89  .02159 1.0239 125.3 19.7 .986  25
2024 05 17 06  15 21 39.477   +35 49 51.17  .02170 1.0238 124.7 19.8 1.06  25
2024 05 17 07  15 22 41.523   +36 26 06.06  .02181 1.0237 124.1 19.8 1.14  25
2024 05 17 08  15 23 43.888   +37 01 56.35  .02193 1.0236 123.5 19.8 1.22  25
2024 05 17 09  15 24 46.574   +37 37 21.88  .02205 1.0235 122.9 19.8 1.30  25
2024 05 17 10  15 25 49.578   +38 12 22.48  .02217 1.0234 122.3 19.9 1.39  25
2024 05 17 11  15 26 52.901   +38 46 58.02  .02229 1.0233 121.7 19.9 1.47  25
2024 05 17 12  15 27 56.543   +39 21 08.42  .02241 1.0232 121.2 19.9 1.55  25
2024 05 17 13  15 29 00.503   +39 54 53.58  .02254 1.0230 120.6 20.0 1.64  25
2024 05 17 14  15 30 04.781   +40 28 13.46  .02267 1.0229 120.1 20.0 1.72  25
2024 05 17 15  15 31 09.376   +41 01 08.03  .02280 1.0228 119.5 20.0 1.81  25
2024 05 17 16  15 32 14.287   +41 33 37.27  .02294 1.0227 119.0 20.0 1.89  25
2024 05 17 17  15 33 19.514   +42 05 41.20  .02307 1.0226 118.4 20.1 1.98  25
2024 05 17 18  15 34 25.057   +42 37 19.84  .02321 1.0225 117.9 20.1 2.07  25
2024 05 17 19  15 35 30.913   +43 08 33.25  .02335 1.0224 117.4 20.1 2.15  25
2024 05 17 20  15 36 37.083   +43 39 21.48  .02350 1.0223 116.8 20.1 2.24  25
2024 05 17 21  15 37 43.565   +44 09 44.62  .02364 1.0222 116.3 20.2 2.33  25
2024 05 17 22  15 38 50.359   +44 39 42.77  .02379 1.0220 115.8 20.2 2.41  25
2024 05 17 23  15 39 57.463   +45 09 16.05  .02394 1.0219 115.3 20.2 2.50  25
2024 05 18 00  15 41 04.876   +45 38 24.57  .02409 1.0218 114.8 20.3 2.59  25
2024 05 18 01  15 42 12.598   +46 07 08.48  .02425 1.0217 114.3 20.3 2.67  25
2024 05 18 02  15 43 20.626   +46 35 27.92  .02440 1.0216 113.9 20.3 2.76  26
2024 05 18 03  15 44 28.960   +47 03 23.07  .02456 1.0215 113.4 20.3 2.84  26
2024 05 18 04  15 45 37.597   +47 30 54.10  .02472 1.0214 112.9 20.4 2.93  26
2024 05 18 05  15 46 46.538   +47 58 01.19  .02488 1.0213 112.4 20.4 3.01  26
2024 05 18 06  15 47 55.779   +48 24 44.53  .02504 1.0212 112.0 20.4 3.09  26
2024 05 18 07  15 49 05.319   +48 51 04.32  .02521 1.0210 111.5 20.5 3.18  26
2024 05 18 08  15 50 15.158   +49 17 00.77  .02537 1.0209 111.1 20.5 3.26  27
2024 05 18 09  15 51 25.292   +49 42 34.10  .02554 1.0208 110.6 20.5 3.34  27
2024 05 18 10  15 52 35.720   +50 07 44.53  .02571 1.0207 110.2 20.5 3.42  27
2024 05 18 11  15 53 46.440   +50 32 32.29  .02588 1.0206 109.8 20.6 3.51  27
2024 05 18 12  15 54 57.450   +50 56 57.61  .02606 1.0205 109.3 20.6 3.59  27